QPF
0.00 0.00 0.00 0.00 0.00 0.00 0.00 0.00 0.00 0.00 0.00 0.00 0.00 0.00 0.00 0.00 0.00 0.00 0.00 0.00 0.00 0.00 0.00 0.00 0.00 0.00 0.00 0.00 0.01 0.00 0.00 0.00 0.00 0.00 0.00 0.00 0.00 0.00 0.00 0.00 0.00 0.00 0.00 0.00
0.00 0.00 0.00 0.00 0.00 0.00 0.00 0.00 0.00 0.00 0.00 0.00 0.00 0.00 0.00 0.00 0.00 0.00 0.00 0.00 0.00 0.00 0.00 0.00 0.00 0.01 0.02 0.02 0.03 0.00 0.00 0.00 0.00 0.00 0.00 0.00 0.00 0.00 0.00 0.00 0.00 0.00 0.00 0.00
0.00 0.00 0.00 0.00 0.00 0.00 0.00 0.00 0.00 0.00 0.00 0.00 0.00 0.00 0.00 0.00 0.00 0.00 0.00 0.00 0.00 0.00 0.00 0.00 0.00 0.00 0.01 0.01 0.00 0.00 0.00 0.00 0.00 0.00 0.00 0.00 0.00 0.00 0.00 0.00 0.00 0.00 0.00 0.00
0.00 0.00 0.00 0.00 0.00 0.00 0.00 0.00 0.00 0.00 0.00 0.00 0.00 0.00 0.00 0.00 0.00 0.00 0.00 0.00 0.00 0.00 0.00 0.00 0.00 0.00 0.00 0.00 0.00 0.00 0.00 0.00 0.00 0.00 0.00 0.00 0.00 0.00 0.00 0.00 0.00 0.00 0.00 0.00
0.00 0.00 0.00 0.00 0.00 0.00 0.00 0.00 0.00 0.00 0.00 0.00 0.00 0.00 0.00 0.00 0.00 0.00 0.00 0.00 0.00 0.00 0.00 0.00 0.00 0.00 0.00 0.00 0.00 0.01 0.01 0.00 0.00 0.00 0.00 0.00 0.00 0.00 0.00 0.00 0.00 0.00 0.00 0.00
0.00 0.00 0.00 0.00 0.00 0.00 0.00 0.00 0.00 0.00 0.00 0.00 0.00 0.00 0.00 0.00 0.00 0.00 0.00 0.00 0.00 0.00 0.00 0.00 0.00 0.00 0.00 0.00 0.01 0.05 0.04 0.02 0.00 0.00 0.00 0.00 0.00 0.00 0.00 0.00 0.00 0.00 0.00 0.00
0.00 0.00 0.00 0.00 0.00 0.00 0.00 0.00 0.00 0.00 0.00 0.00 0.00 0.00 0.00 0.00 0.00 0.00 0.00 0.00 0.00 0.00 0.00 0.00 0.00 0.00 0.00 0.00 0.00 0.02 0.02 0.01 0.00 0.00 0.00 0.00 0.00 0.00 0.00 0.00 0.00 0.00 0.00 0.00
0.00 0.00 0.00 0.00 0.00 0.00 0.00 0.00 0.01 0.00 0.00 0.00 0.00 0.00 0.00 0.00 0.00 0.00 0.00 0.00 0.00 0.00 0.00 0.00 0.00 0.00 0.00 0.00 0.00 0.00 0.00 0.00 0.01 0.00 0.00 0.00 0.00 0.00 0.00 0.00 0.00 0.00 0.00 0.00
0.00 0.00 0.00 0.00 0.00 0.00 0.00 0.00 0.01 0.02 0.00 0.00 0.00 0.00 0.00 0.00 0.00 0.00 0.00 0.00 0.00 0.00 0.00 0.00 0.00 0.00 0.00 0.00 0.00 0.00 0.00 0.00 0.00 0.00 0.00 0.00 0.00 0.00 0.00 0.00 0.00 0.00 0.00 0.00
0.00 0.00 0.00 0.00 0.00 0.00 0.00 0.01 0.01 0.01 0.01 0.00 0.00 0.00 0.00 0.00 0.00 0.00 0.00 0.00 0.00 0.00 0.00 0.00 0.00 0.00 0.00 0.00 0.00 0.00 0.00 0.00 0.00 0.00 0.00 0.02 0.03 0.02 0.00 0.00 0.00 0.00 0.00 0.00
0.00 0.00 0.00 0.00 0.00 0.00 0.00 0.00 0.00 0.00 0.00 0.00 0.00 0.00 0.00 0.00 0.00 0.00 0.00 0.00 0.00 0.00 0.00 0.00 0.00 0.00 0.00 0.00 0.00 0.00 0.00 0.00 0.00 0.00 0.01 0.04 0.06 0.10 0.03 0.00 0.00 0.00 0.00 0.00
0.00 0.00 0.00 0.00 0.00 0.00 0.00 0.00 0.00 0.01 0.00 0.00 0.00 0.00 0.00 0.00 0.00 0.00 0.00 0.00 0.00 0.00 0.00 0.00 0.00 0.00 0.00 0.00 0.00 0.00 0.00 0.00 0.01 0.03 0.05 0.07 0.07 0.06 0.05 0.01 0.00 0.00 0.00 0.00
0.00 0.00 0.00 0.00 0.00 0.00 0.00 0.00 0.00 0.00 0.00 0.00 0.00 0.00 0.00 0.00 0.00 0.00 0.00 0.00 0.00 0.00 0.00 0.00 0.00 0.01 0.00 0.00 0.00 0.01 0.03 0.05 0.10 0.11 0.12 0.10 0.07 0.07 0.03 0.01 0.00 0.00 0.01 0.01
0.00 0.00 0.00 0.00 0.00 0.00 0.00 0.00 0.00 0.00 0.00 0.00 0.00 0.00 0.00 0.00 0.00 0.01 0.00 0.00 0.00 0.00 0.00 0.00 0.00 0.02 0.03 0.03 0.02 0.02 0.04 0.07 0.09 0.14 0.15 0.12 0.09 0.07 0.07 0.05 0.03 0.02 0.04 0.07
0.00 0.00 0.00 0.00 0.00 0.00 0.00 0.00 0.00 0.00 0.00 0.00 0.00 0.00 0.00 0.01 0.00 0.00 0.00 0.00 0.00 0.00 0.00 0.01 0.01 0.01 0.01 0.02 0.03 0.03 0.07 0.06 0.03 0.08 0.11 0.13 0.14 0.09 0.09 0.09 0.08 0.08 0.06 0.08
0.00 0.00 0.00 0.00 0.00 0.00 0.00 0.00 0.00 0.00 0.00 0.00 0.01 0.00 0.00 0.01 0.00 0.00 0.00 0.00 0.00 0.00 0.00 0.00 0.01 0.01 0.01 0.02 0.04 0.04 0.07 0.06 0.02 0.01 0.05 0.13 0.14 0.10 0.05 0.04 0.07 0.06 0.04 0.01
0.00 0.00 0.00 0.00 0.00 0.00 0.00 0.00 0.00 0.00 0.00 0.00 0.00 0.00 0.00 0.00 0.01 0.00 0.00 0.00 0.00 0.00 0.00 0.00 0.00 0.01 0.01 0.03 0.06 0.08 0.05 0.04 0.06 0.06 0.07 0.09 0.07 0.04 0.03 0.03 0.02 0.03 0.01 0.00
0.00 0.00 0.01 0.00 0.00 0.00 0.00 0.00 0.00 0.00 0.00 0.00 0.00 0.00 0.00 0.00 0.00 0.00 0.00 0.00 0.00 0.00 0.00 0.00 0.00 0.00 0.00 0.00 0.01 0.04 0.06 0.05 0.06 0.07 0.05 0.04 0.06 0.05 0.01 0.00 0.01 0.01 0.00 0.00
0.00 0.00 0.00 0.01 0.00 0.00 0.00 0.00 0.00 0.00 0.00 0.00 0.00 0.00 0.00 0.00 0.00 0.00 0.00 0.00 0.00 0.00 0.00 0.00 0.00 0.00 0.00 0.00 0.01 0.01 0.01 0.02 0.03 0.02 0.02 0.02 0.03 0.02 0.02 0.01 0.01 0.01 0.00 0.00
0.00 0.00 0.00 0.01 0.00 0.00 0.00 0.00 0.00 0.00 0.00 0.00 0.00 0.00 0.00 0.00 0.00 0.00 0.00 0.00 0.00 0.00 0.00 0.00 0.00 0.00 0.00 0.00 0.00 0.01 0.01 0.00 0.00 0.00 0.01 0.01 0.01 0.01 0.02 0.01 0.00 0.00 0.00 0.00
0.00 0.00 0.01 0.00 0.01 0.01 0.00 0.00 0.00 0.00 0.00 0.00 0.00 0.00 0.00 0.00 0.00 0.00 0.00 0.00 0.00 0.00 0.00 0.00 0.00 0.00 0.00 0.00 0.00 0.00 0.00 0.00 0.00 0.00 0.00 0.01 0.01 0.01 0.00 0.00 0.00 0.00 0.00 0.00
0.00 0.01 0.01 0.00 0.00 0.00 0.00 0.00 0.00 0.00 0.00 0.00 0.00 0.00 0.00 0.00 0.00 0.00 0.00 0.00 0.00 0.00 0.00 0.00 0.00 0.00 0.00 0.00 0.00 0.00 0.00 0.00 0.00 0.00 0.00 0.00 0.00 0.00 0.00 0.00 0.00 0.00 0.00 0.00
0.00 0.01 0.01 0.01 0.00 0.00 0.00 0.00 0.00 0.00 0.00 0.00 0.00 0.00 0.00 0.00 0.00 0.00 0.00 0.00 0.00 0.00 0.00 0.00 0.00 0.00 0.00 0.00 0.00 0.00 0.00 0.00 0.00 0.00 0.00 0.00 0.00 0.00 0.00 0.00 0.00 0.00 0.00 0.00
0.00 0.00 0.01 0.01 0.00 0.00 0.00 0.00 0.00 0.00 0.00 0.00 0.00 0.00 0.00 0.00 0.00 0.00 0.00 0.00 0.00 0.00 0.00 0.00 0.00 0.00 0.00 0.00 0.00 0.00 0.00 0.00 0.00 0.00 0.00 0.00 0.00 0.00 0.00 0.00 0.00 0.00 0.00 0.00
0.00 0.00 0.00 0.00 0.00 0.00 0.00 0.00 0.00 0.00 0.00 0.00 0.00 0.00 0.00 0.00 0.00 0.00 0.00 0.00 0.00 0.00 0.00 0.00 0.00 0.00 0.00 0.00 0.00 0.00 0.00 0.00 0.00 0.00 0.00 0.00 0.00 0.00 0.00 0.00 0.00 0.00 0.00 0.00
0.00 0.01 0.01 0.00 0.00 0.01 0.00 0.00 0.00 0.00 0.00 0.00 0.00 0.00 0.00 0.00 0.00 0.00 0.00 0.00 0.00 0.00 0.00 0.00 0.00 0.00 0.00 0.00 0.00 0.00 0.00 0.00 0.00 0.00 0.00 0.00 0.00 0.00 0.00 0.00 0.00 0.00 0.00 0.00
MSLP
1013.06 1012.96 1012.78 1012.48 1012.01 1010.98 1010.49 1009.58 1008.34 1007.42 1006.96 1006.76 1005.92 1003.86 1003.56 1003.63 1003.26 1002.86 1002.53 1002.36 1002.01 1001.90 1002.12 1003.02 1003.88 1004.95 1006.35 1007.34 1008.06 1008.54 1009.06 1009.94 1010.79 1011.54 1012.45 1013.18 1013.45 1014.08 1014.28 1014.73 1015.13 1015.50 1015.76 1016.15
1014.58 1013.86 1013.53 1013.19 1012.49 1011.64 1010.84 1009.78 1007.79 1006.62 1007.18 1006.90 1006.05 1004.04 1003.96 1003.44 1002.50 1002.03 1001.79 1001.59 1001.38 1001.69 1002.05 1002.70 1003.45 1004.31 1005.18 1006.28 1007.47 1008.04 1008.55 1009.25 1009.91 1010.85 1011.80 1012.46 1012.88 1013.57 1013.78 1014.05 1014.68 1015.06 1015.57 1015.93
1015.88 1014.83 1014.25 1013.76 1012.76 1011.96 1010.83 1010.03 1008.13 1007.74 1007.46 1006.58 1006.01 1003.68 1003.63 1002.66 1001.99 1001.29 1000.79 1000.29 1000.41 1000.49 1000.95 1001.86 1002.61 1003.35 1004.39 1005.09 1005.82 1006.42 1007.50 1008.51 1009.05 1010.04 1011.40 1012.11 1012.74 1013.23 1013.59 1013.72 1014.22 1014.63 1014.98 1015.48
1015.95 1014.88 1014.37 1013.50 1013.11 1012.93 1010.91 1009.41 1008.54 1008.02 1007.68 1006.06 1006.02 1003.34 1003.22 1002.18 1001.30 1000.87 1000.04 999.99 999.76 999.70 1000.04 1000.62 1001.34 1002.28 1003.05 1003.62 1005.00 1005.85 1006.54 1007.59 1008.45 1008.94 1010.39 1011.07 1011.26 1011.70 1012.18 1012.74 1013.53 1013.95 1014.20 1014.76
1016.81 1015.25 1014.47 1014.09 1014.00 1013.91 1011.53 1009.57 1008.68 1007.89 1007.22 1006.56 1005.58 1004.27 1000.87 1001.45 1000.96 1000.00 999.33 998.86 998.67 998.48 999.12 999.62 1000.24 1000.96 1001.36 1002.86 1003.75 1004.68 1005.66 1006.68 1007.55 1008.03 1009.02 1010.07 1010.74 1011.14 1011.50 1012.15 1012.78 1013.46 1014.00 1014.26
1017.23 1015.50 1015.21 1015.32 1014.83 1013.29 1011.72 1009.78 1008.23 1007.72 1007.16 1006.15 1004.53 1004.10 1001.12 1000.42 999.39 999.18 998.74 998.38 997.98 997.86 997.97 998.56 998.99 1000.07 1000.86 1001.80 1003.08 1004.39 1005.39 1006.19 1007.04 1007.43 1008.29 1008.85 1009.61 1010.43 1011.06 1011.54 1012.14 1012.76 1013.51 1014.04
1017.42 1016.11 1015.68 1015.27 1014.13 1012.41 1011.71 1010.69 1008.66 1007.78 1006.71 1004.00 1003.81 1003.10 1000.47 999.29 998.62 998.12 998.03 997.91 997.70 997.49 997.63 997.80 998.51 999.19 1000.17 1001.08 1001.92 1003.39 1004.55 1005.23 1005.95 1006.81 1007.54 1007.95 1008.44 1009.32 1010.12 1010.77 1011.48 1012.19 1012.79 1013.31
1020.22 1017.13 1016.38 1015.93 1016.27 1014.40 1012.06 1011.33 1008.79 1006.81 1004.74 1003.31 1002.65 1001.36 999.80 999.22 998.60 998.73 997.99 997.87 997.80 997.29 997.03 996.96 997.44 998.06 998.71 999.91 1000.84 1001.81 1002.91 1004.10 1005.05 1005.89 1006.45 1007.18 1007.91 1008.49 1008.94 1009.87 1010.48 1011.22 1011.90 1012.66
1022.16 1019.11 1017.00 1016.27 1016.22 1015.49 1012.80 1011.47 1009.91 1008.04 1004.61 1003.41 1002.09 1001.21 1000.22 1000.24 1000.08 999.73 999.42 999.27 999.11 998.41 997.32 996.32 996.51 997.18 997.92 998.89 999.74 1000.22 1001.41 1002.69 1003.78 1004.49 1005.38 1006.34 1006.87 1007.61 1008.16 1009.03 1009.85 1010.51 1011.14 1011.93
1023.01 1020.37 1017.70 1016.22 1016.17 1016.10 1015.03 1013.59 1010.12 1008.80 1006.41 1004.42 1002.05 1002.02 1002.52 1001.84 1001.12 1000.71 1000.41 1000.20 999.83 998.95 997.82 996.39 996.32 996.85 997.36 997.83 998.43 999.57 1000.39 1001.12 1001.97 1003.22 1004.13 1004.95 1005.64 1006.57 1007.81 1008.29 1009.24 1009.98 1010.68 1011.37
1023.07 1022.36 1018.75 1017.77 1017.31 1016.78 1015.02 1013.49 1012.64 1010.82 1008.01 1006.24 1004.14 1004.59 1005.26 1004.35 1003.16 1002.42 1001.94 1001.59 1001.00 999.96 998.75 997.62 996.79 996.36 996.91 997.95 998.85 999.15 1000.03 1001.08 1002.03 1002.86 1003.60 1004.72 1005.72 1006.48 1007.57 1008.12 1008.75 1009.42 1010.34 1011.02
1023.20 1021.92 1020.16 1018.40 1016.82 1016.93 1016.68 1015.58 1014.60 1013.18 1010.08 1008.10 1006.49 1006.48 1006.93 1005.88 1004.91 1004.18 1003.82 1003.13 1002.24 1001.43 1000.25 998.87 997.95 997.24 997.29 997.80 998.61 999.44 1000.16 1000.83 1001.70 1002.27 1003.07 1004.12 1005.34 1006.26 1007.21 1007.82 1008.48 1009.21 1009.98 1010.70
1023.23 1022.16 1020.69 1018.29 1017.71 1016.86 1016.40 1015.31 1014.86 1013.70 1011.56 1010.09 1008.50 1008.41 1008.48 1007.52 1006.61 1005.69 1005.08 1004.24 1003.15 1002.21 1000.94 999.93 998.94 998.77 998.75 998.88 999.17 999.77 1000.32 1000.92 1001.92 1003.17 1004.09 1004.70 1005.33 1006.07 1006.83 1007.67 1008.34 1009.02 1009.78 1010.64
1022.90 1022.52 1022.35 1021.33 1019.80 1018.63 1017.34 1015.91 1014.96 1014.14 1012.76 1011.55 1010.62 1010.61 1009.57 1008.91 1008.41 1007.26 1006.28 1005.35 1004.40 1003.21 1002.26 1001.07 1000.43 1000.10 999.87 1000.03 1000.17 1000.44 1000.95 1001.39 1001.95 1002.84 1003.82 1004.71 1005.36 1006.02 1006.86 1007.85 1008.39 1008.88 1009.54 1010.25
1022.98 1022.20 1021.53 1020.61 1019.54 1018.79 1018.09 1017.03 1015.83 1014.70 1014.00 1013.68 1012.72 1012.22 1011.72 1011.33 1010.62 1009.77 1008.53 1006.78 1005.61 1004.82 1003.71 1003.09 1002.33 1001.68 1001.53 1001.21 1001.16 1001.32 1001.48 1001.79 1002.39 1003.05 1003.68 1004.41 1005.32 1005.93 1006.72 1007.47 1008.04 1008.63 1009.05 1009.66
1022.95 1022.05 1021.10 1020.32 1018.98 1018.56 1017.83 1017.60 1017.05 1016.75 1015.89 1015.56 1015.17 1014.39 1013.95 1013.14 1012.34 1011.10 1009.98 1008.74 1007.68 1006.81 1006.08 1005.25 1004.50 1003.97 1003.46 1002.81 1002.52 1002.18 1001.98 1002.15 1002.41 1003.05 1003.71 1004.30 1005.12 1005.86 1006.49 1007.14 1007.87 1008.33 1008.83 1009.32
1023.53 1022.65 1021.44 1020.28 1019.17 1018.31 1018.35 1018.78 1018.66 1018.68 1018.04 1017.80 1017.34 1017.83 1015.60 1014.15 1013.61 1013.00 1012.10 1011.08 1010.20 1008.89 1008.14 1007.25 1006.67 1005.98 1005.34 1004.75 1004.06 1003.74 1003.34 1003.04 1003.01 1003.40 1003.94 1004.54 1005.25 1005.79 1006.40 1007.06 1007.74 1008.30 1009.01 1009.54
1024.06 1022.87 1021.78 1020.70 1019.68 1019.45 1019.70 1019.52 1019.55 1019.78 1019.50 1019.22 1018.87 1018.00 1017.54 1016.05 1014.83 1014.29 1013.77 1013.04 1012.12 1011.15 1009.77 1009.03 1008.34 1007.62 1007.00 1006.31 1005.37 1005.24 1004.75 1004.62 1004.61 1004.91 1005.12 1005.02 1005.98 1006.40 1006.93 1007.44 1007.91 1008.62 1009.29 1009.83
1024.69 1023.99 1023.04 1021.75 1020.96 1020.06 1020.42 1020.42 1020.39 1020.12 1020.27 1020.23 1019.94 1019.28 1018.55 1017.03 1015.66 1015.17 1015.23 1014.64 1013.87 1013.08 1012.13 1010.82 1010.07 1009.47 1008.64 1007.94 1007.49 1006.92 1006.70 1006.68 1005.98 1006.67 1006.72 1005.92 1005.74 1006.53 1006.79 1007.86 1008.30 1008.64 1009.35 1009.96
1025.01 1024.34 1023.75 1022.75 1022.01 1021.91 1023.19 1021.42 1019.46 1019.25 1020.43 1020.75 1020.83 1020.43 1019.52 1018.34 1017.03 1017.67 1016.63 1015.78 1015.11 1014.26 1013.63 1012.90 1011.56 1010.87 1010.16 1009.44 1008.83 1008.28 1008.05 1008.00 1007.65 1007.77 1007.85 1008.40 1007.61 1007.29 1008.16 1008.67 1008.78 1009.27 1009.68 1010.18
1026.06 1025.05 1024.39 1023.51 1023.05 1023.16 1023.21 1021.94 1020.07 1020.90 1022.71 1021.45 1021.03 1020.67 1020.26 1020.02 1019.96 1018.99 1017.67 1016.57 1015.78 1015.34 1014.44 1013.80 1013.00 1012.40 1011.63 1010.98 1010.24 1010.02 1009.74 1009.48 1009.59 1010.04 1009.24 1009.52 1008.32 1008.93 1008.97 1009.04 1009.25 1009.88 1010.16 1010.60
1027.93 1027.01 1026.18 1025.49 1024.68 1024.54 1023.78 1022.94 1022.73 1023.48 1022.62 1022.10 1021.46 1021.14 1020.82 1020.22 1019.51 1018.89 1018.27 1017.71 1016.80 1015.56 1014.86 1014.52 1014.30 1013.41 1012.82 1012.14 1011.53 1011.23 1011.14 1010.97 1010.37 1009.99 1010.09 1010.24 1010.30 1009.49 1009.30 1009.68 1010.34 1010.71 1010.91 1011.23
1029.02 1028.85 1028.38 1027.60 1026.34 1025.82 1024.85 1024.28 1023.71 1023.34 1023.09 1022.44 1021.93 1021.14 1020.92 1020.38 1019.63 1019.26 1018.88 1017.79 1017.59 1016.80 1016.10 1015.14 1014.87 1014.55 1013.66 1013.32 1012.97 1012.65 1012.45 1012.03 1011.82 1011.34 1011.30 1011.49 1011.65 1011.08 1010.40 1010.73 1011.94 1011.20 1011.66 1011.85
1029.25 1028.81 1028.32 1027.34 1026.26 1025.81 1025.16 1024.40 1023.98 1023.42 1023.13 1022.55 1021.85 1021.25 1020.57 1020.33 1019.77 1019.24 1018.57 1017.80 1017.48 1017.23 1016.39 1015.84 1015.18 1014.88 1014.46 1014.21 1013.58 1013.51 1013.28 1012.88 1012.58 1012.34 1012.38 1012.52 1012.42 1011.66 1011.91 1012.60 1012.76 1012.73 1012.64 1012.76
1029.89 1029.05 1028.46 1027.93 1027.17 1026.27 1025.63 1025.18 1024.91 1024.21 1023.39 1022.86 1022.30 1021.75 1021.13 1020.65 1020.11 1019.45 1018.73 1018.13 1017.62 1016.91 1016.34 1016.04 1015.77 1015.29 1014.66 1014.12 1013.87 1013.67 1013.46 1013.29 1013.38 1013.02 1012.90 1012.89 1012.89 1013.05 1013.22 1013.43 1013.53 1013.82 1013.91 1013.79
1030.62 1029.54 1029.08 1028.49 1027.70 1027.44 1026.63 1025.80 1025.19 1024.80 1024.28 1023.56 1022.94 1022.30 1021.61 1021.04 1020.49 1019.93 1019.25 1018.42 1017.80 1017.32 1016.78 1016.24 1015.91 1015.65 1015.26 1014.72 1014.24 1013.82 1013.52 1013.52 1013.53 1013.67 1013.76 1013.71 1013.76 1013.87 1013.79 1014.01 1014.29 1014.35 1014.40 1014.37
Thickness
5530 5520 5515 5527 5527 5543 5546 5554 5567 5579 5588 5582 5591 5622 5634 5636 5644 5654 5665 5677 5688 5697 5710 5711 5709 5704 5698 5693 5691 5693 5693 5690 5688 5686 5682 5679 5681 5681 5684 5685 5685 5685 5687 5688
5499 5493 5505 5508 5512 5519 5524 5533 5556 5578 5568 5565 5578 5600 5612 5623 5641 5652 5662 5673 5684 5691 5697 5702 5704 5703 5700 5695 5688 5689 5691 5690 5691 5687 5682 5680 5681 5681 5683 5685 5686 5687 5687 5687
5465 5478 5487 5488 5490 5495 5506 5512 5539 5542 5543 5551 5559 5584 5598 5620 5633 5646 5659 5676 5684 5692 5696 5698 5701 5702 5700 5699 5698 5699 5693 5691 5692 5690 5679 5677 5676 5675 5677 5685 5686 5687 5687 5686
5459 5474 5469 5472 5473 5466 5483 5518 5522 5521 5516 5531 5548 5557 5582 5606 5623 5633 5654 5663 5676 5688 5694 5699 5703 5703 5704 5705 5698 5697 5695 5691 5690 5693 5683 5682 5686 5687 5689 5690 5687 5687 5687 5687
5441 5452 5459 5452 5449 5436 5459 5492 5501 5510 5508 5513 5532 5534 5597 5597 5607 5628 5647 5664 5677 5689 5691 5697 5702 5706 5711 5702 5701 5700 5696 5692 5691 5694 5689 5685 5684 5687 5687 5687 5687 5685 5684 5685
5428 5446 5443 5429 5428 5438 5457 5472 5493 5496 5497 5483 5534 5537 5569 5582 5626 5635 5645 5656 5675 5684 5691 5697 5703 5705 5704 5704 5698 5691 5689 5688 5687 5690 5687 5689 5688 5686 5685 5687 5686 5684 5682 5682
5426 5430 5429 5428 5420 5441 5445 5443 5476 5468 5467 5490 5535 5531 5571 5602 5625 5640 5647 5652 5664 5678 5683 5690 5691 5696 5698 5697 5699 5691 5686 5688 5688 5687 5687 5690 5692 5690 5687 5686 5685 5682 5682 5682
5377 5405 5406 5421 5397 5404 5427 5432 5478 5484 5499 5513 5534 5527 5571 5607 5627 5622 5635 5644 5650 5666 5680 5687 5691 5695 5700 5699 5698 5696 5693 5689 5687 5687 5688 5688 5688 5690 5691 5688 5687 5685 5684 5683
5342 5382 5407 5418 5396 5400 5424 5444 5444 5455 5509 5516 5526 5546 5567 5573 5583 5598 5609 5617 5626 5638 5662 5685 5693 5694 5696 5696 5697 5701 5697 5693 5690 5688 5686 5685 5688 5688 5690 5688 5686 5684 5684 5682
5360 5366 5398 5414 5407 5396 5393 5404 5447 5452 5498 5508 5529 5532 5521 5547 5567 5587 5596 5605 5619 5635 5647 5676 5687 5689 5693 5698 5700 5699 5698 5698 5699 5693 5689 5689 5691 5687 5682 5683 5680 5680 5679 5676
5352 5351 5384 5388 5382 5375 5390 5402 5409 5424 5461 5490 5520 5513 5503 5518 5545 5565 5577 5587 5601 5618 5639 5656 5670 5688 5689 5686 5685 5691 5692 5689 5688 5687 5687 5681 5679 5679 5675 5675 5674 5673 5669 5668
5347 5347 5363 5371 5390 5386 5387 5382 5386 5403 5439 5469 5485 5500 5478 5491 5521 5539 5549 5566 5582 5596 5613 5639 5655 5669 5676 5678 5678 5678 5681 5684 5684 5686 5683 5679 5673 5671 5668 5666 5664 5663 5662 5659
5344 5336 5343 5381 5379 5388 5385 5400 5397 5398 5414 5449 5471 5475 5462 5479 5497 5515 5527 5545 5565 5582 5602 5621 5639 5650 5654 5658 5662 5665 5669 5673 5670 5662 5663 5664 5664 5663 5661 5657 5654 5652 5652 5650
5347 5326 5317 5325 5334 5354 5365 5386 5404 5393 5420 5429 5451 5440 5451 5464 5473 5499 5514 5528 5545 5564 5581 5602 5617 5628 5636 5641 5647 5651 5654 5658 5661 5657 5656 5654 5654 5653 5649 5645 5644 5644 5644 5642
5332 5328 5335 5343 5350 5356 5362 5373 5389 5399 5402 5406 5421 5423 5432 5443 5452 5464 5490 5512 5530 5539 5558 5572 5588 5603 5612 5622 5629 5634 5639 5643 5644 5644 5645 5645 5643 5641 5638 5636 5636 5635 5635 5633
5319 5319 5333 5338 5355 5356 5363 5365 5363 5370 5371 5375 5389 5400 5404 5424 5434 5447 5461 5488 5502 5516 5528 5542 5556 5568 5583 5597 5606 5616 5626 5631 5635 5636 5635 5634 5632 5629 5629 5628 5627 5623 5622 5622
5293 5298 5311 5321 5344 5353 5350 5335 5342 5339 5348 5352 5356 5348 5374 5408 5419 5427 5437 5456 5469 5490 5502 5517 5529 5539 5552 5566 5583 5592 5602 5612 5620 5622 5622 5623 5621 5621 5619 5614 5612 5611 5607 5604
5276 5285 5297 5308 5326 5247 5321 5327 5325 5320 5330 5334 5337 5343 5350 5373 5398 5409 5416 5429 5446 5460 5479 5494 5505 5517 5529 5542 5560 5568 5579 5587 5593 5596 5599 5606 5601 5602 5599 5599 5598 5597 5596 5594
5268 5272 5273 5263 5302 5325 5304 5306 5308 5308 5313 5320 5320 5329 5339 5353 5378 5390 5389 5404 5420 5435 5449 5467 5481 5493 5506 5518 5529 5543 5551 5557 5570 5569 5573 5582 5586 5576 5587 5581 5581 5586 5585 5582
5261 5268 5269 5279 5279 5277 5267 5288 5317 5318 5298 5312 5310 5313 5323 5338 5352 5351 5368 5384 5397 5414 5426 5437 5455 5468 5482 5496 5508 5518 5527 5534 5543 5547 5549 5549 5559 5563 5561 5562 5566 5569 5571 5572
5229 5245 5249 5263 5275 5264 5265 5279 5309 5289 5272 5296 5304 5307 5311 5315 5320 5331 5347 5365 5379 5390 5406 5419 5431 5442 5456 5469 5483 5491 5500 5508 5516 5517 5522 5524 5536 5537 5543 5548 5553 5555 5558 5559
5197 5193 5215 5230 5241 5233 5255 5266 5265 5256 5274 5280 5294 5297 5300 5308 5315 5325 5333 5341 5356 5371 5384 5397 5406 5420 5432 5446 5458 5467 5473 5480 5495 5504 5504 5510 5516 5522 5529 5534 5536 5538 5542 5544
5184 5192 5191 5207 5224 5233 5240 5247 5254 5257 5257 5268 5278 5288 5291 5299 5311 5315 5321 5333 5335 5350 5362 5376 5387 5397 5409 5419 5431 5440 5446 5457 5466 5478 5482 5486 5490 5500 5511 5516 5512 5525 5527 5530
5202 5203 5199 5215 5226 5224 5230 5241 5244 5249 5251 5259 5270 5278 5288 5291 5301 5309 5315 5325 5329 5335 5346 5358 5370 5379 5389 5396 5409 5416 5426 5437 5446 5456 5461 5466 5473 5485 5489 5489 5494 5500 5507 5512
5197 5202 5204 5205 5214 5219 5225 5227 5226 5234 5244 5250 5258 5265 5272 5280 5287 5297 5307 5314 5320 5329 5338 5342 5349 5360 5374 5386 5393 5402 5411 5419 5424 5434 5443 5449 5455 5460 5465 5468 5474 5478 5483 5490
5191 5196 5198 5196 5206 5202 5208 5215 5220 5223 5227 5235 5242 5251 5259 5265 5274 5281 5290 5301 5309 5315 5325 5331 5337 5343 5354 5367 5378 5388 5396 5403 5410 5416 5421 5427 5433 5438 5445 5450 5455 5457 5462 5469